Location: Vesunti
(61.5000°N, 22.8333°E)
Time: 16:54:11
(UTC+00:00)

Cosmos 1633 - Pass Details

Date: 17 February 2020
Orbit: 464 x 482 km, 82.5° (Epoch: 29 March)

Event Time Altitude Azimuth Distance (km) Brightness Sun altitude
Rises 03:50:47 0° 344° (NNW) 2,561 6.1 -16.9°
Reaches altitude 10° 03:52:53 10° 343° (NNW) 1,678 5.2 -16.6°
Maximum altitude 03:56:33 78° 259° (WSW) 504 2.4 -16.2°
Drops below altitude 10° 04:00:12 10° 172° (S) 1,668 5.3 -15.8°
Sets 04:02:18 0° 171° (S) 2,543 6.3 -15.5°
